Location: Rockford
(42.2710°N, 89.0940°W)
Time: 22:24:21
(UTC-06:00)

Daily predictions for brighter satellites

Satellite Brightness Start Highest point End
(mag) Time Altitude Azimuth Time Altitude Azimuth Time Altitude Azimuth
Cosmos 2233 Rocket 4.2 17:59:34 10° N 18:05:53 81° W 18:12:05 10° S
MOS 1-B Rocket 4.0 18:00:27 10° SSE 18:06:44 77° ENE 18:12:25 10° N
ALOS 2.3 18:02:56 10° SSE 18:07:37 85° ENE 18:12:19 10° NNW
Cosmos 44 3.4 18:03:54 10° NNW 18:08:57 82° ENE 18:14:14 10° SE
Cosmos 2333 Rocket 4.4 18:05:56 10° NW 18:10:50 31° WSW 18:15:42 10° SSW
Cosmos 2082 3.9 18:05:13 10° SSW 18:10:50 80° WNW 18:16:32 10° NNE
CZ-4 R/B 3.0 18:08:20 10° S 18:12:09 40° W 18:15:55 10° NNW
SeaSat 1 3.9 18:08:48 10° E 18:12:14 19° NE 18:15:42 10° N
CZ-2C R/B 4.1 18:08:36 10° N 18:13:02 67° WNW 18:17:25 10° SSW
MONITOR-E 4.1 18:11:12 10° SSE 18:14:12 89° SE 18:17:15 10° NNW
USA 215 4.3 18:10:05 10° ENE 18:15:26 26° SE 18:20:44 10° S
MTI 3.7 18:13:10 10° NNE 18:16:22 73° ESE 18:19:34 10° S
COSMO-SKYMED 1 2.9 18:15:14 10° N 18:19:35 72° WNW 18:23:54 10° SSW
Sich 1 Rocket 4.1 18:17:06 10° SSE 18:21:15 38° E 18:25:23 10° NNE
CZ-3 Stage 3 4.0 18:17:38 10° WSW 18:21:41 18° SSW 18:24:00 10° SSE
Meteor 1-18 Rocket 4.2 18:18:16 10° N 18:23:48 60° ENE 18:29:15 10° SSE
NOAA 12 4.2 18:20:30 10° SSE 18:25:48 84° WSW 18:31:11 10° NNW
Envisat 4.0 18:22:09 10° ESE 18:26:13 25° ENE 18:30:18 10° NNE
Cosmos 1464 Rocket 3.9 18:20:44 10° N 18:26:49 64° E 18:32:54 10° SSE
Cosmos 468 4.5 18:21:54 10° S 18:27:09 72° ESE 18:32:23 10° NNE
NOSS 3-2 (C) 4.3 18:22:05 10° WSW 18:27:54 50° NW 18:34:23 10° NNE
Meteor 1-25 Rocket 4.1 18:24:58 10° S 18:30:28 74° E 18:36:03 10° NNE
Okean 3 3.4 18:27:00 10° N 18:31:12 88° WSW 18:35:22 10° S
EO 1 Del DPAF 3.1 18:27:42 10° NNE 18:31:32 74° ESE 18:35:20 10° S
Meteor 1-4 Rocket 4.0 18:30:48 10° SE 18:33:05 16° E 18:33:28 16° E
HJ-1C 4.2 18:30:50 10° SE 18:33:53 31° ENE 18:36:57 10° N
Okean 2 Rocket 4.1 18:30:43 10° SE 18:34:15 24° E 18:37:48 10° NE
Cosmos 1437 Rocket 3.2 18:32:34 10° SSE 18:36:23 41° E 18:40:15 10° NNE
Landsat 4 3.9 18:32:56 10° N 18:36:40 76° WNW 18:40:26 10° SSW
Thor Agena Rocket 4.2 18:33:28 10° NE 18:37:58 31° E 18:42:23 10° SSE
Cosmos 1072 Rocket 4.5 18:32:56 10° N 18:39:11 87° E 18:45:29 10° S
Cosmos 1674 Rocket 4.3 18:36:08 10° NNW 18:40:24 56° W 18:44:37 10° S
Cosmos 1269 Rocket 4.1 18:35:24 10° S 18:40:32 54° ESE 18:45:42 10° NNE
USA 32 4.0 18:37:16 10° SSE 18:42:24 59° E 18:47:32 10° NNE
Cosmos 921 Rocket 3.0 18:38:56 10° NNW 18:43:26 65° ENE 18:47:52 10° SSE
Meteor 1-11 Rocket 4.5 18:38:49 10° SE 18:43:31 28° E 18:48:18 10° NNE
CENTAUR R/B 2.6 18:39:34 10° SW 18:45:35 83° NW 18:52:30 10° NE
Gbstr 26 Del rocket 3.2 18:46:29 10° SSW 18:49:57 38° SE 18:51:32 25° E
USA 267 4.3 18:45:34 15° ENE 18:49:59 30° NNE 18:55:28 10° NW
Cosmos 1908 Rocket 3.8 18:46:01 10° SSW 18:50:29 77° W 18:54:59 10° N
CRYOSAT 2 4.5 18:50:23 10° NNE 18:55:08 50° E 18:59:49 10° SSE
Cosmos 1943 4.0 18:52:10 10° N 18:57:10 31° NE 18:59:20 24° E
Cosmos 1633 4.0 18:57:11 10° SSW 19:00:33 40° WNW 19:03:58 10° N
FengYun 1-2 T 4.4 18:55:37 10° S 19:01:07 78° WSW 19:06:38 10° NNW
Cosmos 1939 Rocket 4.0 19:02:39 25° ENE 19:02:39 25° ENE 19:05:39 10° NNE
Cosmos 2034 Rocket 4.0 18:57:17 10° N 19:03:42 89° ENE 19:10:04 10° S
Iridium 4 Rocket 3.5 19:01:00 10° N 19:05:48 68° W 19:10:09 10° S
COSMOS 2455 3.2 19:02:38 10° S 19:08:10 39° ESE 19:11:40 21° NE
Cosmos 1331 Rocket 4.2 19:05:36 10° N 19:10:47 52° ENE 19:13:40 25° SE
Cosmos 2227 Rocket 4.5 19:06:48 10° WSW 19:11:13 23° NW 19:15:39 10° N
OAO 2 Rocket 4.2 19:08:06 10° WSW 19:12:36 36° S 19:14:27 26° SE
Resurs 1-3 4.0 19:12:37 37° E 19:13:03 38° ENE 19:17:07 10° N
Cosmos 1634 Rocket 4.2 19:09:09 10° N 19:15:03 45° ENE 19:19:12 19° SE
FREGAT/IRIS 4.1 19:13:03 10° SSW 19:15:49 37° W 19:18:37 10° NNW
Spot 2 Rocket 4.0 19:15:08 34° E 19:15:52 36° ENE 19:20:28 10° N
BREEZE-M DEB (TANK) 1.6 19:14:26 10° WNW 19:16:48 80° NNE 19:17:03 70° E
Cosmos 1975 Rocket 3.1 19:12:20 10° N 19:16:48 80° W 19:21:15 10° S
SL-16 R/B 3.7 19:11:47 10° NW 19:16:57 37° WSW 19:22:05 10° S
Cosmos 1816 Rocket 4.4 19:11:26 10° S 19:17:47 77° E 19:24:09 10° N
Geosat 4.5 19:17:27 36° E 19:17:47 36° ESE 19:22:24 10° S
ERS-2 3.3 19:14:24 10° S 19:17:57 45° W 19:21:30 10° NNW
CZ-3B R/B 4.4 19:07:59 10° SW 19:22:01 66° SE 19:23:36 39° ENE
SJ-6B 3.1 19:20:33 10° S 19:24:17 65° WSW 19:28:09 10° NNW
Cosmos 2251 Rocket 4.1 19:22:10 10° S 19:25:57 36° SE 19:25:57 36° SE
Resurs 01 Rocket 1.6 19:29:27 56° E 19:29:42 57° ENE 19:34:03 10° N
ATLAS CENTAUR R/B 2.4 19:27:14 10° NNW 19:30:19 33° NNE 19:30:19 33° NNE
Cosmos 1603 3.7 19:30:18 10° NNW 19:35:58 79° WSW 19:39:46 21° SSE
Meteor 1-13 Rocket 4.2 19:33:20 10° NNW 19:38:53 80° W 19:44:23 10° S
SL-8 R/B 4.5 19:34:31 10° W 19:39:05 43° N 19:40:10 37° NNE
Cosmos 1302 Rocket 4.1 19:36:21 10° N 19:41:13 53° NE 19:41:13 53° NE
ARGOS Delta rocket 4.1 19:36:41 10° N 19:41:29 66° WNW 19:46:00 10° SSW
CZ-2D R/B 4.2 19:37:51 10° S 19:41:37 48° W 19:45:25 10° NNW
CZ-4C R/B 3.1 19:34:52 10° NNW 19:41:50 54° NE 19:43:52 43° E
Cosmos 1536 Rocket 4.5 19:42:54 10° N 19:45:41 37° N 19:45:41 37° N
SeaSat 1 2.6 19:47:22 37° S 19:49:17 69° WSW 19:54:14 10° NNW
USA 186 4.0 19:52:50 22° NNW 19:52:50 22° NNW 19:54:13 10° NNW
Cosmos 2263 Rocket 2.0 19:45:52 10° SSW 19:51:05 66° SE 19:51:05 66° SE
USA 215 3.2 19:56:01 37° NE 19:58:54 85° NW 20:05:26 10° SW
Envisat 4.2 20:00:14 10° SSW 20:05:00 41° W 20:09:48 10° NNW
USA 267 3.4 20:32:55 61° N 20:32:55 61° N 20:38:43 10° NW
Cosmos 2279 Rocket 4.3 20:33:56 10° NNW 20:39:18 61° NW 20:39:18 61° NW
Cosmos 1943 4.2 20:36:02 10° NW 20:41:12 41° WSW 20:41:12 41° WSW
H-2A R/B 4.4 20:49:55 16° N 20:49:55 16° N 20:51:02 10° N
COSMOS 2455 4.1 20:48:33 10° WSW 20:54:06 37° NW 20:54:57 36° NNW
CZ-4C R/B 4.0 21:23:39 10° NW 21:29:07 37° W 21:29:07 37° W
